GFSSE_925_rhum_003.txt.gz
RH
57 74 78 97 96 94 83 80 80 75 74 68 62 69 75 78 78 76 74 75 75 78 72 74 74 73 80 75 72 84 88 89 80 64 59 74 80 80 77 77 66 66 82
58 72 87 95 96 93 80 77 76 74 71 67 68 76 80 80 76 80 76 78 77 81 73 71 76 82 79 77 88 88 88 86 68 59 66 68 73 82 80 84 85 87 91
56 68 84 89 92 87 82 76 76 74 74 67 69 75 81 79 76 76 72 74 74 76 78 76 78 80 71 74 78 81 88 85 64 50 54 56 77 80 83 82 76 72 81
55 67 68 80 82 86 81 74 73 70 73 68 79 75 84 77 74 77 78 77 72 72 75 74 81 80 75 75 81 88 90 72 60 58 52 56 64 83 76 76 77 79 80
56 55 68 72 81 80 72 76 75 71 76 69 78 78 78 76 75 74 76 74 73 75 75 77 81 81 78 78 81 89 86 60 57 57 61 68 66 82 83 76 71 75 79
54 54 71 75 84 80 77 82 75 71 72 70 72 80 78 83 75 76 75 73 77 78 81 78 82 82 89 86 85 88 74 51 60 58 61 68 73 74 73 75 76 72 72
51 53 78 84 82 82 85 80 76 70 71 70 81 83 80 73 77 77 80 77 86 88 86 84 86 85 88 85 86 88 58 51 61 55 59 60 70 72 72 71 72 74 72
50 54 70 82 75 79 80 79 76 71 73 72 81 80 75 76 83 79 85 86 88 89 83 79 79 85 87 86 83 81 52 51 54 51 58 64 69 70 72 70 70 72 74
49 52 57 71 78 73 76 80 70 82 74 77 84 79 75 79 82 81 77 89 95 85 78 67 66 71 82 87 85 77 50 47 60 49 48 58 69 68 71 67 66 71 73
48 48 49 55 64 64 69 80 71 82 73 79 82 80 75 74 85 76 71 85 90 78 66 51 62 74 82 81 77 66 48 36 56 56 52 63 69 68 67 60 56 63 66
48 48 48 51 54 52 50 70 71 78 75 77 76 76 74 68 76 74 77 83 73 65 60 52 65 63 64 56 49 52 41 49 42 49 51 59 65 69 57 44 36 45 62
49 50 50 52 53 51 42 56 66 66 72 71 66 70 70 60 60 64 80 77 69 61 54 47 55 48 41 45 54 41 48 39 34 44 50 59 52 75 71 66 51 48 51
48 47 48 52 54 51 43 46 54 57 59 59 57 57 59 55 61 69 68 79 76 77 72 61 57 50 45 41 36 46 41 35 29 31 43 52 43 73 73 73 67 63 62
37 41 48 50 55 55 48 45 47 52 53 53 54 54 56 56 56 58 59 60 60 61 60 56 52 49 45 41 35 32 33 32 31 24 33 42 38 39 72 74 71 62 62
32 34 40 57 55 56 57 50 47 49 52 51 54 55 55 57 54 53 54 56 56 56 53 52 50 49 52 45 37 32 30 29 31 32 29 28 26 24 29 58 67 65 59
30 31 33 42 62 54 57 58 53 52 52 54 52 58 58 58 58 52 52 56 58 60 58 55 52 51 52 53 40 35 34 32 32 31 33 33 33 30 20 21 51 56 59
28 30 30 35 47 61 55 57 59 56 57 56 57 56 61 61 63 59 55 56 60 60 61 60 58 55 52 53 48 38 35 34 31 32 33 33 34 34 34 26 32 49 56
29 30 31 32 39 52 58 58 58 59 60 61 60 60 61 63 66 66 62 59 59 62 62 62 60 60 58 55 54 52 45 38 36 34 32 33 34 34 36 35 32 29 50
26 30 32 33 34 43 54 60 60 60 62 62 63 62 62 63 65 69 69 65 60 63 64 63 61 61 60 59 56 52 52 50 48 45 41 38 36 36 37 39 40 38 36
21 24 26 31 37 43 52 62 64 63 64 63 64 65 64 64 66 69 71 71 67 63 66 66 66 64 64 62 58 51 52 53 52 52 53 51 49 45 43 44 43 44 44
17 21 24 26 29 40 50 55 62 63 64 65 66 66 67 67 66 71 74 74 72 71 66 66 68 69 68 66 64 62 61 60 58 58 59 59 58 49 43 43 46 50 49
17 18 22 27 29 32 45 50 54 56 57 58 62 66 69 70 70 71 74 76 75 75 73 69 67 69 70 68 64 66 72 62 59 58 58 59 60 56 52 49 49 47 46
24 24 22 24 31 34 38 47 51 55 55 56 58 62 68 70 73 74 75 77 78 76 76 76 73 72 72 72 69 68 73 73 56 50 53 54 54 51 48 46 49 56 58
35 34 32 30 28 33 38 43 50 55 56 56 56 58 60 66 73 76 77 79 80 80 79 78 77 77 77 77 76 73 69 61 67 64 55 56 52 50 52 53 55 55 59
37 38 39 34 30 31 34 38 46 52 52 52 50 46 49 55 68 75 78 80 82 82 81 82 80 79 78 80 78 77 79 78 74 75 76 64 61 58 57 54 54 57 56
36 36 32 30 32 38 41 38 37 44 48 48 47 46 48 51 56 65 76 78 82 84 83 82 82 80 78 78 80 80 79 78 81 78 79 71 68 63 62 60 60 60 59

GFSSE_925_rhum_006.txt.gz
RH
69 66 90 95 97 92 87 84 80 78 72 67 65 70 77 81 77 74 76 77 82 75 75 76 76 77 80 71 79 88 88 86 78 65 67 72 82 82 81 87 81 90 83
66 66 82 97 97 90 84 83 78 76 71 68 72 75 81 78 81 77 78 80 83 79 74 78 78 81 78 81 83 83 87 85 52 64 70 74 75 80 88 83 79 81 94
67 78 86 94 96 89 83 79 80 75 76 68 70 73 84 78 76 77 77 73 76 81 77 80 82 72 74 79 76 82 87 65 44 53 58 78 79 83 78 78 79 83 88
63 69 84 86 89 87 84 80 79 74 74 69 73 81 83 80 75 79 80 76 72 73 77 79 83 74 73 73 78 88 86 55 55 57 56 70 78 78 81 75 78 83 82
63 64 78 66 80 84 81 77 76 70 77 70 75 73 76 75 73 76 76 72 73 75 76 79 84 77 78 76 77 90 68 49 58 61 64 70 75 80 73 76 74 75 78
54 65 73 68 80 77 72 80 76 73 75 71 72 74 70 74 72 76 72 72 78 79 82 79 82 83 81 87 82 84 48 58 60 62 65 70 66 73 75 75 75 72 73
52 69 73 74 72 68 79 84 78 74 75 69 78 85 81 77 71 77 78 76 84 84 86 84 84 85 89 86 88 86 48 58 59 58 63 69 64 72 71 71 74 74 72
50 67 77 84 85 79 84 84 79 74 74 70 82 82 78 70 80 79 76 75 88 90 85 82 81 86 88 87 84 81 44 56 56 55 62 68 68 72 71 70 72 74 74
49 56 71 79 80 78 82 79 79 75 76 72 82 82 77 76 80 74 72 81 95 86 78 66 68 76 86 87 86 80 46 52 56 53 57 56 53 68 72 66 67 71 72
47 51 60 69 76 76 68 79 76 73 77 74 81 82 78 74 81 75 67 79 86 80 69 55 57 68 80 87 84 62 43 41 55 56 55 62 53 68 67 62 57 58 62
46 47 47 56 64 66 63 75 76 72 81 75 77 79 76 71 71 75 72 82 79 71 62 52 60 70 70 64 56 45 39 29 46 52 54 55 48 66 63 53 35 38 48
46 46 46 48 53 53 51 65 67 69 77 75 77 77 72 66 66 73 75 76 78 70 58 50 51 50 49 45 44 38 31 34 38 42 51 54 51 65 68 64 42 36 48
46 47 48 48 51 52 43 54 65 68 70 73 71 66 69 61 61 62 68 73 72 62 58 55 40 35 35 43 45 50 42 36 38 32 44 50 53 49 74 74 72 65 64
43 46 46 47 50 52 48 42 54 57 62 61 62 58 59 58 55 61 65 66 68 65 67 69 58 55 47 44 42 37 41 40 36 30 27 38 43 44 61 75 74 74 66
36 40 43 46 48 53 49 44 44 50 53 54 54 54 54 56 56 56 58 59 60 59 62 57 57 52 50 50 41 36 32 30 31 32 27 25 31 33 35 61 66 71 70
28 33 37 43 48 52 55 52 48 46 49 51 52 54 54 56 57 56 53 54 56 57 57 56 53 51 49 52 52 42 36 31 29 29 32 32 30 30 28 31 54 58 61
28 29 32 36 47 51 54 56 57 51 51 52 52 53 56 57 58 59 56 52 55 58 60 60 58 55 52 52 53 53 41 36 34 32 30 31 33 34 33 32 43 49 53
29 28 30 31 38 49 52 54 56 59 56 56 56 56 55 58 60 60 62 56 54 58 61 62 62 60 59 56 54 55 51 42 37 35 34 32 31 32 32 33 32 38 50
25 29 30 31 32 40 50 55 57 58 60 59 60 61 58 58 61 63 64 65 60 59 61 63 63 63 62 62 60 58 55 54 51 43 38 36 35 34 33 33 32 33 32
19 22 26 30 33 34 40 53 59 60 59 60 62 63 63 62 62 64 66 68 69 62 61 64 65 64 63 62 62 63 60 56 53 52 52 51 47 44 40 38 37 38 38
16 18 22 24 29 35 39 48 58 63 64 64 64 64 66 65 64 64 66 70 72 71 64 64 68 67 66 65 66 65 63 60 58 55 54 53 53 54 54 51 48 45 45
29 27 23 23 26 31 39 47 53 61 64 64 64 65 66 67 67 66 66 72 74 76 75 69 68 72 73 72 73 75 83 72 66 64 62 63 62 61 61 60 57 47 45
40 36 34 30 28 29 33 43 50 54 57 58 58 62 66 68 69 70 71 72 76 78 79 79 74 71 75 74 72 73 87 86 80 56 60 64 64 62 61 61 58 54 50
39 37 36 32 31 32 34 39 46 50 58 59 60 58 59 61 65 70 72 74 75 78 81 81 80 77 76 76 77 71 69 66 77 81 56 52 55 55 51 48 48 47 46
37 33 31 33 34 34 31 32 37 45 51 53 54 54 53 51 55 65 70 74 76 80 82 84 84 79 79 79 78 73 79 77 76 78 81 68 58 56 54 50 50 55 55
37 35 34 34 33 33 38 44 46 44 42 43 46 49 50 50 50 52 61 72 77 81 84 86 86 86 85 83 79 79 79 80 81 81 84 80 74 65 64 60 59 58 55

GFSSE_925_rhum_012.txt.gz
RH
76 75 89 95 97 97 96 90 86 80 76 72 75 75 77 78 76 74 75 81 80 79 80 80 80 78 77 83 83 90 85 75 84 80 81 86 83 90 88 83 83 88 91
66 74 84 94 97 97 94 90 85 79 72 68 70 71 79 80 75 81 76 77 78 75 75 75 71 77 80 80 77 88 83 77 84 78 78 83 86 88 84 82 81 89 96
67 72 82 91 96 90 92 87 85 78 73 70 78 78 77 81 78 78 78 80 76 77 77 77 74 72 80 87 81 82 81 78 75 71 84 88 82 82 83 91 90 81 89
64 67 74 89 96 93 92 88 82 75 74 73 69 82 82 82 80 83 77 76 77 81 83 83 72 74 78 73 76 68 56 58 65 71 69 79 80 78 80 83 86 89 88
65 62 74 90 95 93 88 87 82 77 73 73 74 84 84 77 78 79 79 75 81 82 84 88 75 74 73 72 76 72 48 57 65 75 75 79 81 74 77 76 79 82 82
64 57 76 84 90 92 89 86 79 74 78 72 81 78 74 76 80 78 74 78 81 82 83 86 85 79 79 74 75 78 48 59 65 72 81 79 55 74 75 75 75 75 72
67 60 69 71 74 89 89 86 81 73 78 74 73 76 73 82 78 80 78 77 83 84 85 81 86 84 77 85 86 79 50 61 63 71 77 72 67 75 75 77 74 73 72
68 72 71 74 82 82 85 78 80 77 81 76 76 83 83 78 72 80 80 83 86 91 91 86 82 84 89 87 87 88 47 58 62 63 73 71 62 72 71 72 76 75 73
67 72 78 79 84 85 78 78 74 76 79 78 74 83 86 81 76 84 80 86 91 93 90 87 81 81 86 88 86 89 50 55 59 63 74 70 67 71 71 70 72 75 74
67 70 77 76 82 84 76 79 76 68 73 77 75 82 81 77 75 76 76 71 92 96 86 82 79 73 78 89 89 86 61 46 55 59 70 69 65 66 70 67 68 72 72
73 71 71 70 74 79 78 73 76 64 67 78 75 79 77 75 73 71 71 72 70 75 78 74 73 70 68 75 87 88 61 40 49 57 58 58 62 68 69 69 64 63 66
77 75 67 63 63 69 68 64 73 67 65 72 75 75 76 75 70 70 66 76 74 67 72 74 73 62 59 65 68 73 66 45 34 53 56 55 64 74 72 68 68 62 60
55 64 67 62 59 64 66 62 59 63 62 67 78 75 74 71 70 67 68 75 78 77 78 76 70 58 53 49 50 54 55 42 35 34 51 50 55 78 73 68 69 67 61
52 51 52 58 59 62 62 59 58 64 68 67 62 70 72 67 68 64 68 68 75 75 75 71 63 56 52 41 38 43 42 44 45 33 32 41 44 78 70 69 70 73 72
52 50 49 49 52 57 60 59 56 60 68 61 57 67 65 66 66 65 64 66 68 66 66 67 64 64 61 58 40 35 41 46 43 49 33 38 40 41 62 66 69 70 74
48 47 47 48 48 51 56 56 54 50 53 57 58 63 63 65 65 64 64 63 64 62 61 64 66 61 60 60 57 55 49 46 44 40 39 41 40 35 32 53 58 64 67
41 40 44 46 48 49 51 54 54 52 47 50 52 56 60 61 63 64 62 61 60 59 58 62 67 64 64 63 61 57 53 52 52 49 39 35 32 32 33 48 50 53 59
42 40 37 40 44 46 48 50 52 52 48 47 46 51 55 58 58 60 60 60 59 59 58 58 60 62 60 60 60 58 55 52 52 54 55 52 43 36 33 31 31 36 48
29 37 35 37 40 40 45 46 50 53 53 53 53 50 49 52 53 55 56 56 57 58 60 60 57 61 65 64 63 63 62 59 58 56 56 57 56 48 40 37 36 33 32
28 30 34 37 39 43 47 50 52 56 57 57 58 58 57 56 56 56 56 57 58 60 62 64 64 62 63 70 73 72 70 68 64 64 63 61 60 58 56 54 51 44 38
33 31 30 30 36 42 51 54 56 55 58 59 58 60 61 62 62 62 62 62 62 62 64 66 68 70 71 73 79 76 76 71 71 73 73 70 67 65 63 60 57 55 51
40 38 35 34 37 41 48 53 57 57 60 57 58 61 62 64 64 68 69 69 69 69 70 73 75 77 79 78 79 79 85 70 70 71 71 73 72 73 71 68 64 61 57
39 38 38 41 40 39 47 54 56 61 65 64 64 66 66 68 68 69 71 73 73 74 76 77 80 83 82 79 81 82 95 92 88 65 65 68 72 70 68 71 71 68 66
41 37 36 36 37 39 42 44 49 56 58 60 61 58 56 57 58 61 65 72 80 81 81 80 81 84 88 88 84 88 84 80 89 83 64 68 62 62 64 65 66 65 67
43 41 39 38 38 38 37 37 38 40 42 41 41 41 42 41 42 44 44 45 50 77 88 87 89 90 91 93 89 87 90 92 89 92 93 76 67 67 67 66 66 68 71
43 42 40 40 41 41 42 43 44 45 45 45 47 48 48 46 46 47 46 47 48 53 65 84 87 95 97 96 97 97 93 92 86 91 95 88 84 73 70 69 67 67 68

GFSSE_925_rhum_018.txt.gz
RH
73 63 96 98 98 97 98 97 92 91 82 77 74 74 76 74 72 69 68 71 80 79 80 80 81 84 65 76 78 79 84 83 87 85 84 85 78 79 74 73 73 82 88
63 62 92 96 97 97 96 96 89 86 78 76 73 72 74 72 72 70 73 73 76 75 75 73 78 68 68 70 74 78 80 89 88 74 74 80 81 84 79 80 73 85 91
63 67 83 93 90 97 86 96 89 85 74 71 70 71 77 76 71 76 71 76 74 74 73 72 69 67 71 77 76 85 82 82 87 84 80 82 83 84 88 85 90 94 96
63 72 76 84 89 96 89 94 90 86 78 72 70 75 74 74 76 74 72 77 75 76 80 76 71 76 70 84 79 81 83 82 83 69 70 80 77 84 83 87 90 93 92
67 70 69 82 90 97 92 93 91 83 78 75 74 78 82 76 70 74 80 80 78 79 85 86 81 76 79 74 75 86 81 80 77 68 75 73 83 83 79 80 84 87 79
66 65 62 80 90 98 98 93 90 82 78 75 77 74 83 84 74 75 82 79 82 85 84 86 90 84 78 81 82 82 88 78 69 68 76 74 79 77 75 78 79 78 76
65 63 65 80 94 98 98 96 90 83 76 75 77 75 76 73 72 80 81 80 82 85 85 84 84 88 86 84 83 80 84 81 67 67 71 79 82 66 78 76 77 77 74
60 63 66 86 90 93 97 96 92 81 77 79 81 74 72 75 76 77 85 88 83 86 87 87 85 82 86 86 85 87 89 88 75 67 67 78 80 71 79 76 78 77 75
67 68 67 88 89 89 89 93 89 83 79 79 78 76 76 83 85 82 80 88 87 88 90 96 93 90 86 84 86 88 89 90 88 65 64 67 77 75 83 73 75 78 77
73 72 71 83 89 88 93 90 87 83 80 75 79 79 80 78 78 79 83 85 88 90 95 94 95 93 91 85 84 90 88 85 89 71 61 62 68 77 87 78 74 75 76
78 78 76 80 85 90 93 91 87 84 82 79 72 78 82 80 75 67 69 74 75 78 92 93 94 94 93 86 74 71 75 87 86 75 62 58 60 77 87 83 74 75 73
75 75 76 80 83 87 90 90 88 84 86 82 68 76 79 76 76 76 76 72 73 74 78 90 94 92 91 91 80 66 62 65 76 76 67 54 56 71 82 83 80 74 77
63 71 71 74 83 86 85 81 82 81 84 78 68 64 74 77 76 77 77 76 72 70 70 78 80 80 83 83 80 73 60 55 57 60 61 59 51 68 76 76 79 79 78
58 62 64 72 81 80 78 77 72 73 70 68 64 59 61 65 71 72 72 68 68 65 67 70 72 74 77 77 77 70 62 56 48 40 40 45 50 50 66 73 73 76 77
58 55 55 64 71 70 72 70 70 67 64 59 59 59 61 60 57 61 62 63 63 66 66 65 66 66 69 69 69 71 67 62 58 55 39 31 36 40 50 63 65 69 70
52 50 50 54 57 62 64 65 63 62 61 61 59 55 60 60 56 55 62 63 65 65 66 66 66 66 67 69 67 66 65 65 61 58 57 54 48 40 41 54 66 58 58
51 51 50 49 51 54 54 55 60 59 60 60 58 57 55 54 55 57 61 64 62 60 62 65 67 68 70 69 68 66 64 62 61 60 59 58 56 54 51 49 60 65 60
34 32 34 49 51 51 52 51 51 52 54 57 58 58 57 57 55 57 61 58 57 61 65 65 66 68 69 69 68 66 66 65 64 63 62 61 60 60 59 57 53 54 62
37 36 34 34 42 47 49 52 54 53 53 54 57 59 60 59 59 60 59 59 62 64 66 68 69 73 77 78 76 73 75 73 70 69 69 68 67 66 65 63 62 61 59
40 40 40 40 39 46 54 58 60 61 61 61 61 61 60 60 62 63 66 68 72 76 78 79 80 81 82 81 83 82 80 79 78 75 74 74 72 72 72 71 70 69 67
42 43 45 45 47 46 60 67 69 67 65 70 78 80 81 82 84 85 87 86 86 88 88 89 88 87 87 88 90 86 84 80 78 76 72 75 75 69 73 71 70 71 72
45 44 45 47 57 60 64 70 72 76 71 59 54 54 55 52 52 51 50 52 56 64 71 83 97 98 92 90 90 90 94 76 73 69 68 69 69 69 76 70 71 70 67
48 45 42 42 44 53 63 68 68 50 49 48 50 49 49 45 41 40 39 38 39 41 49 54 76 94 99 96 95 96 95 89 82 76 72 70 71 72 71 70 70 71 71
51 47 44 43 42 42 41 43 47 55 59 58 50 43 39 37 36 35 36 38 41 44 45 48 50 59 74 93 93 91 97 97 88 88 73 78 74 73 77 76 76 73 73
50 50 49 49 49 49 48 48 50 54 53 48 43 39 37 36 38 37 37 38 40 43 45 46 46 51 62 78 87 93 92 87 85 91 91 78 76 78 82 80 84 84 80
52 50 49 48 52 50 49 51 50 50 48 45 46 45 44 42 41 40 39 42 43 44 44 47 51 55 59 62 68 82 89 90 90 93 91 85 86 78 73 74 80 85 85

GFSSE_925_rhum_024.txt.gz
RH
60 65 85 97 93 87 90 89 94 86 86 79 78 76 81 77 75 72 68 68 72 76 77 81 82 85 84 81 74 82 76 87 86 81 66 79 80 89 81 85 68 68 74
55 64 76 94 90 91 84 90 91 84 79 79 73 73 72 75 70 70 72 73 76 73 74 76 74 84 74 67 68 71 72 87 74 69 63 64 74 76 79 77 77 72 80
57 65 88 90 77 93 86 82 88 87 81 77 73 72 76 72 71 70 72 72 71 74 76 74 76 66 68 69 78 69 69 83 88 77 71 65 67 76 83 78 82 87 94
57 66 75 92 82 89 84 81 84 88 80 75 73 71 78 76 78 75 73 77 76 76 77 78 80 76 74 74 84 86 76 79 83 73 67 60 60 66 78 82 82 85 94
60 62 71 89 84 86 80 93 85 90 86 76 75 76 86 76 76 74 80 81 80 82 83 84 76 74 77 74 88 85 81 74 81 67 63 64 69 60 77 83 75 81 88
58 61 78 85 80 82 81 83 86 88 86 78 76 77 80 83 78 74 79 83 81 83 85 84 80 80 83 85 75 75 79 85 81 65 63 62 78 68 83 85 78 79 83
58 62 71 80 83 88 87 88 86 83 82 80 76 80 80 85 75 74 80 82 81 84 87 86 86 82 84 88 86 82 77 80 79 65 59 61 69 79 89 84 76 78 77
60 66 64 77 82 93 91 90 84 83 85 79 78 75 74 82 71 76 75 82 86 87 86 83 83 84 85 84 83 77 80 76 76 70 66 62 65 85 93 86 86 80 78
64 66 66 73 91 90 87 85 84 83 82 81 81 80 81 76 74 76 79 84 87 88 84 87 93 84 81 86 91 88 84 78 79 69 66 66 61 64 88 89 85 85 79
68 68 65 70 76 80 86 88 88 87 81 76 77 75 76 78 78 75 71 73 80 88 89 77 72 88 84 73 75 78 79 78 72 64 63 66 72 75 79 85 87 83 85
68 70 69 69 73 73 73 79 91 92 90 85 81 78 77 71 70 75 75 72 69 67 65 71 78 77 85 78 76 80 82 70 54 53 54 60 78 86 82 80 84 82 80
57 64 70 73 74 76 77 79 83 75 77 73 71 67 65 62 67 76 79 74 72 68 65 61 62 64 74 73 66 75 79 63 58 53 48 52 71 83 82 80 81 82 82
48 55 66 68 72 74 76 76 73 75 73 72 73 72 67 63 66 70 72 76 78 74 76 70 70 70 66 67 65 65 66 65 63 60 57 56 62 72 71 78 78 78 80
44 47 57 64 68 72 74 77 72 73 74 72 72 72 70 67 67 68 69 72 74 72 68 70 68 66 68 68 67 65 65 65 64 63 62 64 63 57 69 67 69 76 74
42 45 50 59 65 67 73 73 72 70 72 70 74 74 72 70 67 64 67 68 68 70 69 69 69 68 69 68 67 67 68 69 68 68 67 68 69 63 60 65 72 66 66
44 47 50 52 58 64 67 72 71 70 70 72 73 76 77 75 72 73 73 72 70 69 70 70 69 69 70 68 66 67 67 66 68 67 67 66 69 71 67 64 81 78 73
45 44 46 53 54 59 62 66 71 72 75 73 74 75 79 79 78 78 75 74 70 69 71 70 70 71 74 75 73 69 67 66 66 66 67 66 66 68 70 66 66 84 83
41 38 40 44 40 54 60 64 67 71 74 73 75 76 78 76 77 76 72 70 70 73 74 76 76 76 76 73 72 71 72 70 70 69 68 67 66 67 68 69 69 70 88
41 42 46 53 49 51 63 67 71 73 72 73 72 70 70 71 74 75 75 78 80 80 79 77 75 74 71 68 68 67 68 68 68 67 68 67 67 69 70 70 72 72 72
47 52 54 59 60 63 66 67 66 69 74 77 78 80 81 78 78 76 67 60 61 62 59 59 60 62 60 58 58 57 59 59 59 61 62 62 62 67 69 71 71 70 70
49 54 60 64 64 60 61 63 69 65 63 60 56 53 52 51 50 50 49 46 45 45 45 44 44 43 40 43 41 42 42 46 55 44 51 63 55 54 58 61 62 68 69
44 50 58 68 72 72 72 63 60 57 56 55 53 50 46 45 46 45 47 46 46 45 45 47 48 48 44 44 45 46 40 39 34 46 43 40 45 43 50 57 64 63 68
46 47 54 64 61 62 57 55 54 52 48 46 47 49 49 46 46 48 50 48 48 48 46 47 46 51 49 47 44 47 53 49 49 42 40 39 39 45 44 46 51 52 54
53 52 52 51 52 52 51 49 47 45 46 48 46 47 48 49 46 45 45 44 42 41 39 38 36 41 39 38 39 40 47 50 55 55 38 44 40 46 44 44 44 48 49
58 57 54 53 52 51 49 45 43 45 47 48 46 46 46 48 44 38 38 37 33 30 32 32 36 38 33 32 38 42 47 49 48 46 55 36 37 36 37 39 44 48 48
60 59 55 51 52 51 50 49 49 47 46 46 45 41 39 36 35 33 29 28 26 26 29 28 35 39 34 36 39 46 54 50 41 43 44 45 48 44 42 51 50 46 46